Hall Beach, Northwest Territories

2:00 AM EST on February 14, 2016 (GMT -0500)
Hall Beach

Weather History for CYUX - October, 2011

Change the Weather History Date:

Monday, October 10, 2011

  Actual Average Record
Temperature  
Mean Temperature 16 °F -  
Max Temperature 23 °F 24 °F 33 °F (2015)
Min Temperature 10 °F 16 °F 6 °F (2005)
Degree Days  
Heating Degree Days 48    
Moisture  
Dew Point 15 °F    
Average Humidity 84    
Maximum Humidity 93    
Minimum Humidity 70    
Precipitation  
Precipitation 0.00 in - - ()
Sea Level Pressure  
Sea Level Pressure 29.89 in    
Wind  
Wind Speed 18 mph ()    
Max Wind Speed 30 mph    
Max Gust Speed 34 mph    
Visibility 11.2 miles    
Events Snow    
Averages and records for this station are not official NWS values.
T = Trace of Precipitation, MM = Missing Value Source: Averaged Metar Reports

Daily Weather History Graph

Daily Weather History Graph

Search for Another Location

Airport or City:

Trip Planner

Search our weather history database for the weather conditions in past years. The results will help you decide how hot, cold, wet, or windy it might be!

Date:

Astronomy

Oct. 10, 2011 Rise Set
Actual Time 8:11 AM EDT 6:10 PM EDT
Civil Twilight 7:13 AM EDT 7:08 PM EDT
Nautical Twilight 6:06 AM EDT 8:14 PM EDT
Astronomical Twilight 4:55 AM EDT 9:25 PM EDT
Moon 5:13 PM EDT (10/10) 6:39 AM EDT (10/10)
Length of Visible Light 11h 54m
Length of Day
9h 58m
Waxing Gibbous, 98% of the Moon is Illuminated
Oct 10
Waxing Gibbous
Oct 11
Full
Oct 19
Last Quarter
Oct 26
New
Nov 2
First Quarter

Hourly Weather History & Observations

Time (EDT) Temp. Windchill Dew Point Humidity Pressure Visibility Wind Dir Wind Speed Gust Speed Precip Events Conditions
12:00 AM 19.4 °F 4.1 °F 15.8 °F 86% 29.76 in 9.0 mi NNW 18.4 mph - N/A   Clear
12:13 AM 19.4 °F 5.0 °F 17.6 °F 93% 29.76 in 9.0 mi NNW 16.1 mph - N/A   Mostly Cloudy
12:51 AM 19.4 °F 5.0 °F 15.8 °F 86% 29.77 in 9.0 mi NNW 16.1 mph - N/A   Scattered Clouds
1:00 AM 19.4 °F 4.1 °F 15.8 °F 86% 29.78 in 9.0 mi NNW 18.4 mph - N/A   Partly Cloudy
1:26 AM 19.4 °F 4.5 °F 15.8 °F 86% 29.78 in 9.0 mi NNW 17.3 mph - N/A   Mostly Cloudy
1:50 AM 19.4 °F 4.1 °F 15.8 °F 86% 29.78 in 9.0 mi NNW 18.4 mph - N/A   Scattered Clouds
2:00 AM 19 °F - 16 °F 81% 29.79 in 9 mi NNW 18.4 mph - -  
2:00 AM 19.4 °F 4.5 °F 15.8 °F 86% 29.79 in 9.0 mi NNW 17.3 mph - N/A   Partly Cloudy
2:16 AM 19.4 °F 3.6 °F 15.8 °F 86% 29.78 in 9.0 mi NNW 19.6 mph - N/A   Mostly Cloudy
2:24 AM 17.6 °F 2.2 °F 15.8 °F 93% 29.78 in 9.0 mi NNW 17.3 mph - N/A   Scattered Clouds
2:36 AM 17.6 °F 3.2 °F 15.8 °F 93% 29.79 in 9.0 mi NW 15.0 mph - N/A   Mostly Cloudy
3:00 AM 14.0 °F -1.4 °F 12.2 °F 93% 29.80 in 9.0 mi NW 15.0 mph - N/A   Overcast
4:00 AM 15.8 °F -0.2 °F 14.0 °F 93% 29.81 in 9.0 mi NNW 17.3 mph - N/A   Mostly Cloudy
4:03 AM 15.8 °F -0.2 °F 14.0 °F 93% 29.81 in 9.0 mi NW 17.3 mph - N/A   Scattered Clouds
5:00 AM 12 °F - 10 °F 85% 29.81 in 9 mi NW 18.4 mph - -  
5:00 AM 12.2 °F -5.8 °F 10.4 °F 92% 29.81 in 9.0 mi NW 19.6 mph - N/A   Partly Cloudy
6:00 AM 10.4 °F -7.7 °F 8.6 °F 92% 29.82 in 9.0 mi NW 18.4 mph - N/A   Clear
6:59 AM 12.2 °F -6.3 °F 10.4 °F 92% 29.82 in 9.0 mi NW 20.7 mph - N/A   Mostly Cloudy
8:00 AM 19 °F - 17 °F 85% 29.84 in 9 mi NNW 23.0 mph - -   Overcast
8:00 AM 19.4 °F 2.1 °F 15.8 °F 86% 29.84 in 15.0 mi NNW 24.2 mph - N/A Snow Low Drifting Snow
9:00 AM 19.4 °F 2.5 °F 15.8 °F 86% 29.85 in 15.0 mi NNW 23.0 mph - N/A Snow Low Drifting Snow
10:00 AM 17.6 °F 0.5 °F 15.8 °F 93% 29.86 in 15.0 mi NW 21.9 mph - N/A Snow Low Drifting Snow
11:00 AM 22 °F - 17 °F 75% 29.86 in 9 mi North 26.5 mph - -  
12:00 PM 23.0 °F 5.4 °F 17.6 °F 80% 29.88 in 15.0 mi North 29.9 mph - N/A Snow Low Drifting Snow
1:00 PM 23.0 °F 6.0 °F 17.6 °F 80% 29.91 in 15.0 mi North 27.6 mph 34.5 mph N/A   Partly Cloudy
2:00 PM 23 °F - 19 °F 77% 29.93 in 9 mi North 28.8 mph - -  
2:00 PM 23.0 °F 6.0 °F 17.6 °F 80% 29.93 in 15.0 mi North 27.6 mph 34.5 mph N/A Snow Low Drifting Snow
3:00 PM 23.0 °F 6.6 °F 17.6 °F 80% 29.97 in 15.0 mi North 25.3 mph 32.2 mph N/A Snow Low Drifting Snow
4:00 PM 21.2 °F 3.3 °F 15.8 °F 80% 29.99 in 15.0 mi NNW 28.8 mph 34.5 mph N/A Snow Low Drifting Snow
5:00 PM 20 °F - 15 °F 75% 30.01 in 9 mi North 27.6 mph - -  
5:00 PM 19.4 °F 1.4 °F 15.8 °F 86% 30.01 in 15.0 mi NNW 26.5 mph 32.2 mph N/A Snow Low Drifting Snow
6:00 PM 19.4 °F 2.1 °F 14.0 °F 80% 30.02 in 15.0 mi NNW 24.2 mph 29.9 mph N/A Snow Low Drifting Snow
7:00 PM 19.4 °F 1.4 °F 14.0 °F 80% 30.04 in 15.0 mi NNW 26.5 mph - N/A Snow Low Drifting Snow
8:00 PM 19 °F - 15 °F 76% 30.06 in 9 mi NNW 23.0 mph - -  
8:00 PM 19.4 °F 2.5 °F 14.0 °F 80% 30.06 in 15.0 mi NNW 23.0 mph - N/A Snow Low Drifting Snow
9:00 PM 19.4 °F 2.5 °F 14.0 °F 80% 30.08 in 15.0 mi NNW 23.0 mph - N/A Snow Low Drifting Snow
10:00 PM 19.4 °F 2.8 °F 14.0 °F 80% 30.10 in 15.0 mi NNW 21.9 mph 27.6 mph N/A Snow Low Drifting Snow
11:00 PM 19 °F - 13 °F 70% 30.12 in 9 mi NNW 23.0 mph - -  
11:00 PM 19.4 °F 2.5 °F 14.0 °F 80% 30.12 in 9.0 mi NNW 23.0 mph - N/A   Partly Cloudy